Voltar ao catálogo

COSMOS 249 DEB

AtivoLEO
NORAD 3755·DEBRIS·🇷🇺 Russia

Lançado Oct 20, 1968 de Baikonur Cosmodrome

Loading…

Próximas Passagens (próximas 24 horas)

TLE

EnvelhecendoSource: Space-Track

Época: Sep 12, 2026, 02:37 UTC

1 03755U 68091AT  26255.10925652  .00000057  00000-0  16450-3 0  9995
2 03755  62.2442 295.2420 0774543 134.9772 231.6735 12.81758579654598

Acompanhe COSMOS 249 DEB em tempo real com AllMySat

Download on the App Store